Epoch = 2010 June 13.0 TT T = 2010 June 9.86156 TT Peri. = 70.56284 e = 0.5824017 Node = 43.10543 2000.0 q = 2.2708891 AU Incl. = 27.07837 a = 5.4379746 AU n = 0.07772278 P = 12.68 years
m1 = 13.5 + 5 logΔ + 10.0 log r